Pueblo, CO

7:00 AM MST on December 09, 2019 (GMT -0700)
Pueblo Memorial

Weather History for KPUB - July, 2019

Change the Weather History Date:

Monday, July 22, 2019

  Actual Average Record
Temperature  
Mean Temperature 73 °F 76 °F  
Max Temperature 84 °F 93 °F 104 °F (2016)
Min Temperature 61 °F 59 °F 48 °F (1988)
Degree Days  
Heating Degree Days 0 0  
Month to date heating degree days 0 0  
Since 1 June heating degree days 8 25  
Since 1 July heating degree days 0 0  
Cooling Degree Days 8 11  
Month to date cooling degree days 293 237  
Year to date cooling degree days 440 446  
Since 1 June cooling degree days 431 412  
Growing Degree Days 22 (Base 50)    
Moisture  
Dew Point 60 °F    
Average Humidity 71    
Maximum Humidity 97    
Minimum Humidity 44    
Precipitation  
Precipitation 0.01 in 0.08 in 0.64 in (1895)
Month to date precipitation 2.40 1.38  
Year to date precipitation 8.98 7.23  
Snow  
Snow 0.00 in 0.00 in 0.00 in (2002)
Month to date snowfall T 0.0  
Since 1 June snowfall T 0.0  
Since 1 July snowfall T 0.0  
Snow Depth 0.00 in    
Sea Level Pressure  
Sea Level Pressure 30.21 in    
Wind  
Wind Speed 8 mph (SE)    
Max Wind Speed 20 mph    
Max Gust Speed 25 mph    
Visibility 10 miles    
Events Rain , Thunderstorm    
T = Trace of Precipitation, MM = Missing Value Source: NWS Daily Summary

Daily Weather History Graph

Daily Weather History Graph

Search for Another Location

Airport or City:

Astronomy

Jul. 22, 2019 Rise Set
Actual Time 5:51 AM MDT 8:16 PM MDT
Civil Twilight 5:21 AM MDT 8:46 PM MDT
Nautical Twilight 4:44 AM MDT 9:23 PM MDT
Astronomical Twilight 4:03 AM MDT 10:05 PM MDT
Moon 11:42 PM MDT (7/22) 11:07 AM MDT (7/22)
Length of Visible Light 15h 25m
Length of Day
14h 24m
Waning Gibbous, 72% of the Moon is Illuminated
Jul 22
Waning Gibbous
Jul 24
Last Quarter
Jul 31
New
Aug 7
First Quarter
Aug 15
Full

Hourly Weather History & Observations

Time (MDT) Temp. Heat Index Dew Point Humidity Pressure Visibility Wind Dir Wind Speed Gust Speed Precip Events Conditions
12:53 AM 64.0 °F - 59.0 °F 84% 30.14 in 10.0 mi West 20.7 mph 28.8 mph 0.07 in Rain Light Rain
1:08 AM 64.0 °F - 60.1 °F 87% 30.33 in 10.0 mi NW 16.1 mph - 0.00 in   Partly Cloudy
1:53 AM 64.9 °F - 59.0 °F 81% 30.12 in 10.0 mi NW 12.7 mph - 0.00 in   Clear
2:53 AM 64.0 °F - 60.1 °F 87% 30.13 in 10.0 mi East 8.1 mph - N/A   Clear
3:53 AM 63.0 °F - 60.1 °F 90% 30.13 in 10.0 mi SSE 4.6 mph - N/A   Clear
4:53 AM 62.1 °F - 60.1 °F 93% 30.15 in 10.0 mi SW 3.5 mph - N/A   Clear
5:53 AM 61.0 °F - 59.0 °F 93% 30.19 in 10.0 mi East 3.5 mph - N/A   Clear
6:53 AM 63.0 °F - 60.1 °F 90% 30.22 in 10.0 mi ESE 5.8 mph - N/A   Clear
7:24 AM 64.0 °F - 60.1 °F 87% 30.41 in 10.0 mi ESE 4.6 mph - N/A   Mostly Cloudy
7:53 AM 64.9 °F - 61.0 °F 87% 30.23 in 10.0 mi ESE 6.9 mph - N/A   Mostly Cloudy
8:01 AM 66.0 °F - 62.1 °F 87% 30.40 in 10.0 mi ESE 5.8 mph - N/A   Partly Cloudy
8:53 AM 66.9 °F - 62.1 °F 84% 30.23 in 10.0 mi South 4.6 mph - N/A   Partly Cloudy
9:53 AM 71.1 °F - 60.1 °F 68% 30.22 in 10.0 mi Calm Calm - N/A   Clear
10:53 AM 73.9 °F - 60.1 °F 62% 30.23 in 10.0 mi East 5.8 mph - N/A   Partly Cloudy
11:53 AM 75.9 °F - 60.1 °F 58% 30.21 in 10.0 mi Variable 3.5 mph - N/A   Clear
12:53 PM 78.1 °F - 59.0 °F 52% 30.17 in 10.0 mi East 8.1 mph - N/A   Clear
1:53 PM 80.1 °F 80.7 °F 59.0 °F 48% 30.14 in 10.0 mi ESE 8.1 mph 18.4 mph N/A   Clear
2:53 PM 82.0 °F 82.1 °F 59.0 °F 45% 30.12 in 10.0 mi SE 10.4 mph - N/A   Clear
3:53 PM 84.0 °F 84.4 °F 61.0 °F 46% 30.10 in 10.0 mi SE 13.8 mph 24.2 mph N/A   Partly Cloudy
4:53 PM 81.0 °F 81.7 °F 61.0 °F 50% 30.12 in 10.0 mi East 13.8 mph - N/A   Clear
5:53 PM 80.1 °F 80.9 °F 60.1 °F 50% 30.14 in 10.0 mi ESE 10.4 mph - N/A   Scattered Clouds
6:53 PM 78.1 °F - 61.0 °F 56% 30.14 in 10.0 mi ESE 13.8 mph - N/A   Clear
7:53 PM 77.0 °F - 60.1 °F 56% 30.17 in 10.0 mi ESE 6.9 mph - N/A   Overcast
8:18 PM 75.0 °F - 55.9 °F 51% 30.35 in 10.0 mi West 9.2 mph - N/A Thunderstorm Overcast
8:33 PM 73.9 °F - 57.0 °F 55% 30.36 in 10.0 mi Variable 6.9 mph - N/A   Overcast
8:53 PM 71.1 °F - 61.0 °F 70% 30.22 in 9.0 mi SW 9.2 mph - 0.00 in Rain Light Rain
9:45 PM 69.1 °F - 62.1 °F 78% 30.36 in 10.0 mi SSE 8.1 mph - 0.01 in Thunderstorm Partly Cloudy
9:53 PM 70.0 °F - 61.0 °F 73% 30.20 in 10.0 mi SSE 8.1 mph - 0.01 in Thunderstorm Clear
10:00 PM 69.1 °F - 62.1 °F 78% 30.36 in 10.0 mi South 10.4 mph - N/A   Clear
10:53 PM 66.9 °F - 63.0 °F 87% 30.19 in 10.0 mi West 5.8 mph - N/A   Clear
11:53 PM 66.9 °F - 63.0 °F 87% 30.20 in 10.0 mi North 8.1 mph - N/A   Clear